| time (UTC) | temp F | wind direction | speed knots | gust knots | rain 1hr in | rain 24hr in | rain mn in | humidity % | barometer mb |
| 20260505184527 | 82 | 287 | 1.7 | 0.0 | 0.00 | 0.00 | 0.00 | 70 | 1005.4 |
| 20260505183025 | 81 | 245 | 1.7 | 0.0 | 0.00 | 0.00 | 0.00 | 72 | 1005.7 |
| 20260505181520 | 79 | 215 | 1.7 | 0.0 | 0.00 | 0.00 | 0.00 | 74 | 1005.9 |
| 20260505180018 | 79 | 216 | 1.7 | 0.0 | 0.00 | 0.00 | 0.00 | 74 | 1006.1 |
| 20260505174516 | 78 | 156 | 1.7 | 0.0 | 0.00 | 0.00 | 0.00 | 76 | 1006.2 |
| 20260505173032 | 77 | 187 | 1.7 | 0.0 | 0.00 | 0.00 | 0.00 | 78 | 1006.3 |
| 20260505171509 | 76 | 207 | 1.7 | 0.0 | 0.00 | 0.00 | 0.00 | 78 | 1006.4 |
| 20260505170006 | 75 | 272 | 1.7 | 0.0 | 0.00 | 0.00 | 0.00 | 81 | 1006.5 |
| 20260505164505 | 74 | 195 | 0.9 | 0.0 | 0.00 | 0.00 | 0.00 | 82 | 1006.5 |
| 20260505163009 | 74 | 199 | 1.7 | 0.0 | 0.00 | 0.00 | 0.00 | 82 | 1006.5 |
| 20260505161600 | 73 | 153 | 0.9 | 0.0 | 0.00 | 0.00 | 0.00 | 83 | 1006.4 |
| 20260505153108 | 72 | 212 | 0.9 | 0.0 | 0.00 | 0.00 | 0.00 | 85 | 1006.6 |
| 20260505151558 | 71 | 297 | 0.9 | 0.0 | 0.00 | 0.00 | 0.00 | 85 | 1006.4 |
| 20260505124548 | 70 | 203 | 1.7 | 0.0 | 0.00 | 0.00 | 0.00 | 86 | 1005.3 |
| 20260505123046 | 70 | 165 | 1.7 | 0.0 | 0.00 | 0.00 | 0.00 | 86 | 1005.0 |
| 20260505121546 | 70 | 181 | 1.7 | 0.0 | 0.00 | 0.00 | 0.00 | 86 | 1004.8 |
| 20260505120046 | 69 | 209 | 1.7 | 0.0 | 0.00 | 0.00 | 0.00 | 86 | 1004.6 |
| 20260505114546 | 69 | 237 | 1.7 | 0.0 | 0.00 | 0.00 | 0.00 | 86 | 1004.5 |
| 20260505113044 | 69 | 224 | 1.7 | 0.0 | 0.00 | 0.00 | 0.00 | 86 | 1004.6 |
| 20260505111552 | 69 | 230 | 1.7 | 0.0 | 0.00 | 0.00 | 0.00 | 86 | 1004.4 |
| 20260505101540 | 70 | 110 | 1.7 | 0.0 | 0.00 | 0.00 | 0.00 | 85 | 1004.7 |
| 20260505100048 | 70 | 135 | 0.9 | 0.0 | 0.00 | 0.00 | 0.00 | 85 | 1005.0 |
| 20260505094539 | 70 | 188 | 1.7 | 0.0 | 0.00 | 0.00 | 0.00 | 85 | 1004.8 |
| 20260505093039 | 70 | 198 | 1.7 | 0.0 | 0.00 | 0.00 | 0.00 | 85 | 1005.0 |
| 20260505091551 | 70 | 179 | 0.9 | 0.0 | 0.00 | 0.00 | 0.00 | 85 | 1004.9 |
| 20260505090050 | 70 | 234 | 1.7 | 0.0 | 0.00 | 0.00 | 0.00 | 85 | 1005.3 |
| 20260505084537 | 70 | 213 | 1.7 | 0.0 | 0.00 | 0.00 | 0.00 | 85 | 1005.2 |
| 20260505083040 | 70 | 208 | 2.6 | 0.0 | 0.00 | 0.00 | 0.00 | 84 | 1005.3 |
| 20260505081548 | 70 | 214 | 1.7 | 0.0 | 0.00 | 0.00 | 0.00 | 84 | 1005.5 |
| 20260505080038 | 70 | 193 | 1.7 | 0.0 | 0.00 | 0.00 | 0.00 | 84 | 1005.6 |
| 20260505074526 | 70 | 214 | 1.7 | 0.0 | 0.00 | 0.00 | 0.00 | 83 | 1005.9 |
| 20260505073025 | 70 | 168 | 1.7 | 0.0 | 0.00 | 0.00 | 0.00 | 83 | 1006.0 |
| 20260505071527 | 70 | 193 | 2.6 | 0.0 | 0.00 | 0.00 | 0.00 | 83 | 1006.2 |
| 20260505070121 | 70 | 224 | 1.7 | 0.0 | 0.00 | 0.00 | 0.00 | 83 | 1006.4 |
| 20260505064518 | 70 | 203 | 1.7 | 0.0 | 0.00 | 0.00 | 0.00 | 83 | 1006.6 |
| 20260505063016 | 70 | 199 | 2.6 | 0.0 | 0.00 | 0.00 | 0.00 | 83 | 1006.7 |
| 20260505061524 | 70 | 218 | 2.6 | 0.0 | 0.00 | 0.00 | 0.00 | 83 | 1006.9 |
| 20260505060011 | 70 | 101 | 0.9 | 0.0 | 0.00 | 0.00 | 0.00 | 82 | 1007.0 |
| 20260505054518 | 71 | 105 | 1.7 | 0.0 | 0.00 | 0.00 | 0.00 | 82 | 1006.9 |
| 20260505053011 | 71 | 249 | 1.7 | 0.0 | 0.00 | 0.00 | 0.00 | 82 | 1006.9 |
| 20260505051509 | 71 | 225 | 1.7 | 0.0 | 0.00 | 0.00 | 0.00 | 82 | 1006.9 |
| 20260505041505 | 72 | 221 | 2.6 | 0.0 | 0.00 | 0.00 | 0.00 | 80 | 1006.8 |
| 20260505040005 | 72 | 203 | 2.6 | 0.0 | 0.00 | 0.00 | 0.00 | 79 | 1006.7 |
| 20260505034504 | 73 | 163 | 2.6 | 0.0 | 0.00 | 0.00 | 0.00 | 79 | 1006.8 |
| 20260505033004 | 73 | 190 | 1.7 | 0.0 | 0.00 | 0.00 | 0.00 | 78 | 1006.7 |
| 20260505031503 | 73 | 172 | 1.7 | 0.0 | 0.00 | 0.00 | 0.00 | 77 | 1006.7 |
| 20260505030003 | 74 | 180 | 1.7 | 0.0 | 0.00 | 0.00 | 0.00 | 76 | 1006.8 |
| 20260505024508 | 74 | 170 | 1.7 | 0.0 | 0.00 | 0.00 | 0.00 | 76 | 1006.7 |
| 20260505023002 | 74 | 209 | 1.7 | 0.0 | 0.00 | 0.00 | 0.00 | 75 | 1006.7 |
| 20260505021504 | 74 | 256 | 1.7 | 0.0 | 0.00 | 0.00 | 0.00 | 73 | 1006.6 |
| 20260505020001 | 75 | 122 | 1.7 | 0.0 | 0.00 | 0.00 | 0.00 | 71 | 1006.5 |
| 20260505014601 | 75 | 133 | 0.9 | 0.0 | 0.00 | 0.00 | 0.00 | 70 | 1006.5 |
| 20260505013103 | 76 | 103 | 1.7 | 0.0 | 0.00 | 0.00 | 0.00 | 69 | 1006.6 |
| 20260505011600 | 76 | 244 | 0.9 | 0.0 | 0.00 | 0.00 | 0.00 | 68 | 1006.5 |
| 20260505010100 | 77 | 170 | 1.7 | 0.0 | 0.00 | 0.00 | 0.00 | 67 | 1006.5 |
| 20260505004605 | 78 | 76 | 1.7 | 0.0 | 0.00 | 0.00 | 0.00 | 66 | 1006.5 |
| 20260505003058 | 78 | 207 | 1.7 | 0.0 | 0.00 | 0.00 | 0.00 | 64 | 1006.4 |
| 20260505001558 | 78 | 292 | 1.7 | 0.0 | 0.00 | 0.00 | 0.00 | 64 | 1006.3 |
| 20260505000058 | 79 | 210 | 1.7 | 0.0 | 0.00 | 0.00 | 0.00 | 63 | 1006.2 |
| 20260504234555 | 80 | 172 | 2.6 | 0.0 | 0.00 | 0.00 | 0.00 | 62 | 1006.5 |
| 20260504233100 | 80 | 122 | 2.6 | 0.0 | 0.00 | 0.00 | 0.00 | 63 | 1006.7 |
| 20260504231553 | 80 | 87 | 2.6 | 0.0 | 0.00 | 0.00 | 0.00 | 62 | 1006.6 |
| 20260504230052 | 81 | 172 | 2.6 | 0.0 | 0.00 | 0.00 | 0.00 | 61 | 1006.8 |
| 20260504224550 | 81 | 230 | 2.6 | 0.0 | 0.00 | 0.00 | 0.00 | 60 | 1007.0 |
| 20260504223054 | 83 | 149 | 2.6 | 0.0 | 0.00 | 0.00 | 0.00 | 58 | 1007.2 |
| 20260504221558 | 83 | 110 | 2.6 | 0.0 | 0.00 | 0.00 | 0.00 | 59 | 1007.1 |
| 20260504220108 | 83 | 145 | 1.7 | 0.0 | 0.00 | 0.00 | 0.00 | 58 | 1007.3 |
| 20260504214548 | 83 | 170 | 2.6 | 0.0 | 0.00 | 0.00 | 0.00 | 57 | 1007.3 |
| 20260504213050 | 82 | 125 | 2.6 | 0.0 | 0.00 | 0.00 | 0.00 | 60 | 1007.5 |
| 20260504211542 | 82 | 110 | 2.6 | 0.0 | 0.00 | 0.00 | 0.00 | 59 | 1008.0 |
| 20260504210041 | 82 | 180 | 2.6 | 0.0 | 0.00 | 0.00 | 0.00 | 61 | 1008.2 |
| 20260504204556 | 80 | 145 | 3.5 | 0.0 | 0.00 | 0.00 | 0.00 | 63 | 1008.5 |
| 20260504203038 | 80 | 222 | 1.7 | 0.0 | 0.00 | 0.00 | 0.00 | 61 | 1008.6 |
| 20260504201536 | 81 | 118 | 3.5 | 0.0 | 0.00 | 0.00 | 0.00 | 61 | 1009.0 |
| 20260504200042 | 81 | 193 | 2.6 | 0.0 | 0.00 | 0.00 | 0.00 | 60 | 1009.2 |
| 20260504194538 | 82 | 118 | 2.6 | 0.0 | 0.00 | 0.00 | 0.00 | 59 | 1009.6 |
| 20260504193031 | 82 | 185 | 2.6 | 0.0 | 0.00 | 0.00 | 0.00 | 60 | 1009.7 |
| 20260504191530 | 82 | 122 | 1.7 | 0.0 | 0.00 | 0.00 | 0.00 | 59 | 1009.8 |
| 20260504190030 | 81 | 170 | 1.7 | 0.0 | 0.00 | 0.00 | 0.00 | 62 | 1010.3 |